QPF
0.00 0.00 0.00 0.00 0.00 0.01 0.02 0.02 0.02 0.02 0.02 0.02 0.03 0.03 0.04 0.07 0.11 0.18 0.13 0.10 0.12 0.10 0.10 0.17 0.19 0.13 0.11 0.11 0.10 0.09 0.08 0.08 0.08 0.07 0.08 0.08 0.08 0.09 0.08 0.06 0.05 0.04 0.05 0.06
0.00 0.00 0.00 0.00 0.00 0.01 0.01 0.01 0.01 0.01 0.02 0.01 0.02 0.04 0.04 0.05 0.08 0.11 0.08 0.07 0.08 0.10 0.10 0.10 0.11 0.14 0.17 0.13 0.12 0.10 0.09 0.09 0.08 0.08 0.09 0.09 0.09 0.10 0.10 0.09 0.08 0.07 0.08 0.09
0.00 0.00 0.00 0.00 0.00 0.00 0.00 0.01 0.00 0.01 0.02 0.01 0.02 0.05 0.06 0.06 0.08 0.07 0.07 0.06 0.07 0.09 0.12 0.11 0.12 0.15 0.11 0.08 0.07 0.08 0.07 0.08 0.08 0.08 0.08 0.09 0.09 0.08 0.09 0.10 0.11 0.11 0.12 0.12
0.00 0.00 0.00 0.00 0.00 0.00 0.00 0.01 0.00 0.00 0.01 0.01 0.02 0.05 0.10 0.09 0.09 0.07 0.06 0.06 0.05 0.05 0.09 0.14 0.12 0.13 0.12 0.09 0.07 0.07 0.07 0.06 0.07 0.06 0.07 0.08 0.08 0.08 0.09 0.11 0.12 0.13 0.14 0.14
0.00 0.00 0.00 0.00 0.00 0.00 0.00 0.00 0.00 0.00 0.00 0.01 0.01 0.03 0.08 0.09 0.08 0.06 0.05 0.04 0.04 0.05 0.09 0.16 0.15 0.10 0.11 0.10 0.07 0.06 0.05 0.05 0.05 0.05 0.06 0.07 0.08 0.10 0.11 0.12 0.14 0.15 0.16 0.16
0.00 0.00 0.00 0.00 0.00 0.00 0.00 0.00 0.00 0.00 0.00 0.01 0.01 0.02 0.06 0.11 0.09 0.07 0.06 0.05 0.04 0.04 0.06 0.10 0.08 0.05 0.05 0.06 0.05 0.06 0.06 0.04 0.04 0.04 0.05 0.06 0.08 0.10 0.12 0.12 0.12 0.12 0.12 0.13
0.00 0.00 0.00 0.00 0.00 0.00 0.00 0.00 0.00 0.01 0.01 0.01 0.02 0.03 0.07 0.08 0.07 0.09 0.09 0.06 0.04 0.04 0.04 0.06 0.05 0.03 0.03 0.04 0.04 0.05 0.05 0.04 0.04 0.04 0.05 0.06 0.07 0.08 0.07 0.08 0.09 0.09 0.08 0.08
0.01 0.00 0.00 0.00 0.00 0.00 0.00 0.00 0.01 0.02 0.02 0.05 0.07 0.05 0.06 0.07 0.09 0.09 0.08 0.05 0.04 0.04 0.03 0.04 0.04 0.05 0.06 0.06 0.05 0.05 0.05 0.04 0.05 0.05 0.05 0.06 0.06 0.06 0.06 0.05 0.06 0.07 0.07 0.06
0.01 0.01 0.00 0.00 0.00 0.00 0.00 0.00 0.01 0.01 0.02 0.04 0.06 0.07 0.08 0.07 0.08 0.09 0.07 0.06 0.04 0.04 0.04 0.04 0.04 0.08 0.13 0.11 0.10 0.05 0.07 0.05 0.05 0.05 0.05 0.05 0.04 0.03 0.03 0.03 0.03 0.04 0.05 0.04
0.00 0.01 0.01 0.01 0.01 0.01 0.01 0.01 0.01 0.03 0.04 0.05 0.07 0.07 0.06 0.05 0.04 0.03 0.04 0.03 0.03 0.03 0.04 0.03 0.03 0.05 0.05 0.04 0.04 0.04 0.04 0.04 0.05 0.06 0.06 0.05 0.04 0.04 0.04 0.04 0.04 0.05 0.06 0.05
0.00 0.01 0.01 0.01 0.01 0.01 0.01 0.01 0.01 0.02 0.03 0.04 0.03 0.04 0.04 0.03 0.02 0.01 0.02 0.03 0.04 0.03 0.03 0.02 0.03 0.03 0.03 0.02 0.02 0.03 0.05 0.06 0.07 0.07 0.07 0.07 0.06 0.05 0.06 0.07 0.08 0.08 0.06 0.04
0.01 0.01 0.01 0.01 0.01 0.01 0.01 0.01 0.01 0.02 0.02 0.02 0.02 0.03 0.04 0.03 0.02 0.02 0.06 0.07 0.03 0.02 0.02 0.02 0.03 0.02 0.02 0.02 0.03 0.04 0.04 0.05 0.05 0.05 0.05 0.05 0.05 0.05 0.05 0.06 0.08 0.09 0.08 0.06
0.01 0.01 0.02 0.02 0.02 0.01 0.01 0.01 0.02 0.02 0.01 0.02 0.02 0.02 0.03 0.03 0.02 0.03 0.05 0.04 0.03 0.02 0.02 0.02 0.02 0.01 0.01 0.02 0.03 0.04 0.05 0.05 0.05 0.05 0.04 0.05 0.04 0.03 0.04 0.06 0.09 0.09 0.08 0.07
0.01 0.01 0.02 0.03 0.03 0.02 0.01 0.01 0.02 0.02 0.02 0.01 0.01 0.02 0.02 0.03 0.03 0.04 0.05 0.04 0.03 0.03 0.03 0.02 0.02 0.02 0.02 0.02 0.03 0.05 0.06 0.05 0.05 0.05 0.04 0.03 0.03 0.03 0.03 0.05 0.06 0.06 0.06 0.06
0.01 0.02 0.02 0.02 0.01 0.01 0.01 0.01 0.01 0.01 0.01 0.01 0.01 0.01 0.02 0.02 0.02 0.04 0.04 0.03 0.03 0.03 0.04 0.03 0.02 0.02 0.02 0.02 0.03 0.04 0.06 0.05 0.04 0.03 0.03 0.03 0.03 0.03 0.04 0.04 0.04 0.03 0.03 0.03
0.02 0.02 0.02 0.02 0.01 0.01 0.01 0.01 0.01 0.01 0.01 0.01 0.01 0.02 0.02 0.03 0.04 0.04 0.04 0.03 0.07 0.06 0.05 0.05 0.04 0.03 0.03 0.03 0.03 0.02 0.04 0.04 0.03 0.03 0.04 0.04 0.03 0.02 0.02 0.03 0.03 0.04 0.04 0.04
0.03 0.03 0.04 0.03 0.01 0.02 0.01 0.01 0.01 0.01 0.01 0.01 0.02 0.02 0.02 0.02 0.04 0.04 0.05 0.05 0.06 0.07 0.07 0.06 0.05 0.04 0.03 0.02 0.02 0.02 0.02 0.02 0.02 0.02 0.02 0.03 0.02 0.02 0.02 0.02 0.02 0.03 0.04 0.05
0.04 0.04 0.05 0.04 0.03 0.03 0.02 0.02 0.01 0.01 0.01 0.01 0.02 0.03 0.03 0.03 0.04 0.04 0.04 0.04 0.04 0.03 0.03 0.04 0.05 0.04 0.03 0.03 0.02 0.02 0.02 0.02 0.02 0.01 0.01 0.02 0.02 0.01 0.01 0.01 0.02 0.02 0.03 0.04
0.03 0.04 0.05 0.05 0.05 0.04 0.02 0.01 0.02 0.02 0.03 0.03 0.04 0.03 0.03 0.03 0.03 0.03 0.04 0.04 0.07 0.04 0.03 0.03 0.04 0.04 0.03 0.02 0.01 0.01 0.02 0.02 0.02 0.01 0.01 0.01 0.02 0.02 0.02 0.02 0.02 0.02 0.02 0.03
0.03 0.03 0.03 0.05 0.06 0.04 0.03 0.02 0.01 0.03 0.04 0.04 0.04 0.04 0.03 0.03 0.03 0.03 0.03 0.04 0.04 0.03 0.03 0.03 0.03 0.03 0.03 0.03 0.02 0.01 0.02 0.03 0.02 0.01 0.01 0.01 0.02 0.03 0.03 0.03 0.03 0.03 0.03 0.03
0.04 0.04 0.04 0.05 0.06 0.04 0.02 0.02 0.02 0.04 0.07 0.06 0.04 0.03 0.03 0.04 0.04 0.05 0.04 0.04 0.04 0.03 0.02 0.02 0.02 0.01 0.01 0.03 0.05 0.03 0.03 0.04 0.03 0.02 0.01 0.01 0.02 0.03 0.04 0.04 0.03 0.03 0.03 0.04
0.05 0.05 0.05 0.04 0.05 0.04 0.02 0.02 0.03 0.04 0.05 0.07 0.06 0.05 0.04 0.04 0.03 0.03 0.04 0.04 0.03 0.03 0.02 0.02 0.01 0.01 0.00 0.01 0.04 0.06 0.06 0.05 0.04 0.03 0.02 0.01 0.02 0.04 0.06 0.05 0.03 0.03 0.03 0.04
0.05 0.05 0.05 0.06 0.05 0.04 0.03 0.02 0.03 0.06 0.05 0.05 0.06 0.07 0.06 0.05 0.03 0.02 0.02 0.01 0.01 0.01 0.02 0.01 0.01 0.01 0.01 0.01 0.01 0.02 0.04 0.04 0.04 0.03 0.02 0.01 0.01 0.03 0.05 0.06 0.04 0.02 0.01 0.01
0.04 0.05 0.04 0.05 0.06 0.06 0.07 0.06 0.07 0.07 0.04 0.04 0.05 0.06 0.06 0.04 0.02 0.02 0.02 0.01 0.01 0.01 0.00 0.01 0.01 0.01 0.01 0.01 0.01 0.01 0.01 0.01 0.02 0.01 0.01 0.01 0.01 0.01 0.02 0.03 0.02 0.01 0.01 0.00
0.07 0.06 0.05 0.05 0.06 0.08 0.09 0.08 0.06 0.05 0.04 0.05 0.03 0.04 0.05 0.06 0.04 0.02 0.01 0.01 0.01 0.01 0.00 0.00 0.01 0.01 0.01 0.01 0.01 0.01 0.01 0.01 0.01 0.01 0.01 0.01 0.01 0.01 0.01 0.01 0.01 0.01 0.01 0.01
0.04 0.04 0.05 0.05 0.04 0.07 0.09 0.08 0.06 0.04 0.02 0.03 0.03 0.03 0.04 0.06 0.05 0.03 0.01 0.01 0.01 0.01 0.00 0.01 0.01 0.00 0.00 0.00 0.01 0.01 0.02 0.02 0.02 0.02 0.01 0.01 0.01 0.00 0.00 0.00 0.00 0.00 0.01 0.01
MSLP
1014.05 1014.67 1015.05 1015.16 1015.00 1014.62 1014.09 1013.51 1012.95 1012.51 1012.21 1012.07 1012.10 1012.26 1012.51 1012.82 1013.15 1013.47 1013.77 1014.03 1014.24 1014.40 1014.49 1014.51 1014.46 1014.33 1014.14 1013.89 1013.62 1013.34 1013.09 1012.88 1012.73 1012.63 1012.57 1012.53 1012.50 1012.45 1012.38 1012.29 1012.22 1012.19 1012.21 1012.32
1014.26 1014.71 1014.92 1014.88 1014.63 1014.23 1013.76 1013.30 1012.94 1012.72 1012.65 1012.72 1012.92 1013.20 1013.53 1013.87 1014.21 1014.53 1014.81 1015.06 1015.26 1015.40 1015.46 1015.43 1015.30 1015.07 1014.76 1014.40 1014.02 1013.66 1013.36 1013.13 1012.96 1012.85 1012.77 1012.69 1012.57 1012.42 1012.22 1012.01 1011.81 1011.69 1011.65 1011.74
1014.18 1014.47 1014.52 1014.37 1014.07 1013.70 1013.34 1013.08 1012.95 1012.98 1013.14 1013.42 1013.76 1014.12 1014.49 1014.82 1015.12 1015.40 1015.66 1015.89 1016.09 1016.23 1016.29 1016.25 1016.08 1015.80 1015.43 1014.99 1014.54 1014.12 1013.77 1013.51 1013.33 1013.21 1013.10 1012.97 1012.79 1012.53 1012.22 1011.89 1011.58 1011.35 1011.24 1011.28
1013.95 1014.07 1014.00 1013.78 1013.48 1013.20 1013.01 1012.97 1013.09 1013.36 1013.74 1014.17 1014.60 1014.99 1015.32 1015.58 1015.80 1016.01 1016.21 1016.42 1016.63 1016.80 1016.91 1016.90 1016.77 1016.49 1016.10 1015.64 1015.15 1014.69 1014.31 1014.03 1013.83 1013.69 1013.56 1013.40 1013.16 1012.83 1012.43 1012.00 1011.58 1011.25 1011.05 1011.01
1013.71 1013.71 1013.55 1013.31 1013.07 1012.92 1012.92 1013.11 1013.47 1013.95 1014.49 1015.02 1015.47 1015.81 1016.03 1016.16 1016.24 1016.33 1016.46 1016.64 1016.87 1017.10 1017.29 1017.37 1017.32 1017.11 1016.76 1016.32 1015.83 1015.36 1014.97 1014.67 1014.45 1014.30 1014.15 1013.96 1013.69 1013.31 1012.85 1012.34 1011.84 1011.41 1011.11 1010.97
1013.62 1013.54 1013.34 1013.13 1012.98 1012.99 1013.18 1013.58 1014.14 1014.78 1015.41 1015.96 1016.35 1016.57 1016.63 1016.57 1016.48 1016.43 1016.46 1016.61 1016.86 1017.17 1017.46 1017.67 1017.74 1017.64 1017.38 1017.00 1016.54 1016.08 1015.68 1015.37 1015.14 1014.98 1014.82 1014.62 1014.33 1013.94 1013.44 1012.88 1012.32 1011.81 1011.41 1011.16
1013.78 1013.66 1013.47 1013.32 1013.29 1013.45 1013.81 1014.38 1015.08 1015.81 1016.47 1016.96 1017.24 1017.29 1017.14 1016.87 1016.59 1016.38 1016.32 1016.43 1016.71 1017.09 1017.50 1017.85 1018.06 1018.09 1017.93 1017.63 1017.22 1016.79 1016.40 1016.08 1015.84 1015.67 1015.51 1015.31 1015.03 1014.63 1014.13 1013.55 1012.95 1012.38 1011.90 1011.55
1014.17 1014.06 1013.93 1013.87 1013.95 1014.23 1014.73 1015.41 1016.17 1016.92 1017.54 1017.93 1018.06 1017.92 1017.57 1017.10 1016.64 1016.30 1016.15 1016.23 1016.53 1016.98 1017.49 1017.96 1018.29 1018.44 1018.39 1018.16 1017.81 1017.41 1017.03 1016.71 1016.47 1016.29 1016.13 1015.95 1015.69 1015.32 1014.83 1014.26 1013.65 1013.05 1012.51 1012.07
1014.71 1014.66 1014.60 1014.62 1014.80 1015.18 1015.75 1016.47 1017.24 1017.94 1018.47 1018.74 1018.72 1018.41 1017.90 1017.28 1016.70 1016.26 1016.05 1016.11 1016.43 1016.92 1017.50 1018.05 1018.47 1018.71 1018.73 1018.57 1018.26 1017.89 1017.52 1017.20 1016.96 1016.78 1016.64 1016.47 1016.24 1015.90 1015.46 1014.92 1014.32 1013.71 1013.14 1012.65
1015.24 1015.27 1015.30 1015.41 1015.66 1016.08 1016.67 1017.36 1018.07 1018.68 1019.10 1019.24 1019.10 1018.68 1018.08 1017.39 1016.76 1016.29 1016.07 1016.14 1016.46 1016.98 1017.58 1018.16 1018.62 1018.89 1018.95 1018.81 1018.53 1018.18 1017.82 1017.51 1017.28 1017.10 1016.97 1016.83 1016.63 1016.33 1015.93 1015.44 1014.87 1014.29 1013.73 1013.22
1015.60 1015.73 1015.85 1016.03 1016.32 1016.73 1017.27 1017.88 1018.48 1018.97 1019.27 1019.32 1019.11 1018.66 1018.05 1017.39 1016.80 1016.39 1016.22 1016.31 1016.65 1017.16 1017.74 1018.30 1018.73 1018.98 1019.03 1018.90 1018.62 1018.28 1017.93 1017.63 1017.40 1017.24 1017.12 1017.00 1016.83 1016.58 1016.23 1015.78 1015.27 1014.72 1014.19 1013.70
1015.71 1015.94 1016.15 1016.37 1016.66 1017.03 1017.47 1017.95 1018.41 1018.76 1018.96 1018.94 1018.72 1018.31 1017.80 1017.26 1016.80 1016.51 1016.44 1016.59 1016.94 1017.43 1017.96 1018.45 1018.81 1019.00 1019.00 1018.84 1018.56 1018.21 1017.88 1017.59 1017.37 1017.23 1017.12 1017.02 1016.87 1016.66 1016.35 1015.95 1015.49 1015.00 1014.51 1014.06
1015.56 1015.88 1016.16 1016.41 1016.67 1016.96 1017.28 1017.61 1017.91 1018.12 1018.22 1018.18 1017.99 1017.69 1017.33 1016.99 1016.73 1016.61 1016.67 1016.90 1017.28 1017.74 1018.20 1018.59 1018.85 1018.95 1018.88 1018.68 1018.38 1018.04 1017.71 1017.44 1017.25 1017.11 1017.02 1016.92 1016.79 1016.60 1016.32 1015.97 1015.57 1015.13 1014.70 1014.31
1015.23 1015.63 1015.95 1016.21 1016.43 1016.63 1016.82 1016.98 1017.12 1017.20 1017.22 1017.16 1017.04 1016.88 1016.71 1016.59 1016.56 1016.65 1016.86 1017.19 1017.59 1018.01 1018.39 1018.68 1018.83 1018.83 1018.69 1018.44 1018.13 1017.80 1017.50 1017.25 1017.07 1016.95 1016.86 1016.77 1016.65 1016.46 1016.21 1015.89 1015.53 1015.15 1014.79 1014.45
1014.83 1015.28 1015.64 1015.90 1016.07 1016.17 1016.23 1016.24 1016.23 1016.19 1016.14 1016.08 1016.03 1016.01 1016.04 1016.14 1016.33 1016.62 1016.98 1017.39 1017.81 1018.20 1018.50 1018.69 1018.74 1018.66 1018.46 1018.18 1017.87 1017.55 1017.28 1017.07 1016.91 1016.80 1016.71 1016.61 1016.48 1016.29 1016.05 1015.76 1015.44 1015.11 1014.81 1014.54
1014.49 1014.96 1015.32 1015.57 1015.70 1015.72 1015.67 1015.55 1015.41 1015.28 1015.17 1015.11 1015.12 1015.22 1015.41 1015.70 1016.08 1016.52 1016.99 1017.47 1017.91 1018.26 1018.50 1018.60 1018.58 1018.44 1018.20 1017.91 1017.61 1017.33 1017.10 1016.92 1016.78 1016.68 1016.59 1016.48 1016.33 1016.14 1015.90 1015.63 1015.34 1015.06 1014.81 1014.59
1014.26 1014.71 1015.06 1015.29 1015.37 1015.34 1015.20 1015.00 1014.77 1014.57 1014.42 1014.36 1014.42 1014.60 1014.90 1015.32 1015.82 1016.37 1016.92 1017.43 1017.86 1018.18 1018.37 1018.42 1018.34 1018.16 1017.92 1017.65 1017.38 1017.15 1016.95 1016.81 1016.70 1016.60 1016.50 1016.38 1016.22 1016.02 1015.78 1015.52 1015.27 1015.03 1014.83 1014.67
1014.14 1014.53 1014.83 1015.02 1015.07 1015.00 1014.82 1014.57 1014.31 1014.07 1013.91 1013.86 1013.95 1014.18 1014.56 1015.05 1015.61 1016.20 1016.77 1017.28 1017.69 1017.98 1018.12 1018.13 1018.03 1017.85 1017.63 1017.39 1017.17 1016.98 1016.84 1016.73 1016.64 1016.55 1016.45 1016.31 1016.14 1015.94 1015.71 1015.47 1015.25 1015.06 1014.90 1014.78
1014.05 1014.33 1014.55 1014.68 1014.70 1014.60 1014.42 1014.18 1013.92 1013.71 1013.57 1013.55 1013.67 1013.94 1014.34 1014.85 1015.43 1016.02 1016.57 1017.05 1017.42 1017.67 1017.78 1017.77 1017.67 1017.51 1017.32 1017.14 1016.97 1016.84 1016.74 1016.66 1016.59 1016.51 1016.41 1016.27 1016.09 1015.89 1015.68 1015.47 1015.29 1015.13 1015.02 1014.94
1013.91 1014.02 1014.11 1014.15 1014.13 1014.03 1013.87 1013.67 1013.48 1013.33 1013.26 1013.30 1013.47 1013.78 1014.20 1014.71 1015.26 1015.82 1016.33 1016.77 1017.09 1017.30 1017.39 1017.38 1017.30 1017.16 1017.02 1016.88 1016.77 1016.69 1016.63 1016.59 1016.54 1016.47 1016.37 1016.23 1016.07 1015.88 1015.69 1015.51 1015.36 1015.25 1015.17 1015.12
1013.62 1013.53 1013.46 1013.38 1013.30 1013.19 1013.07 1012.95 1012.86 1012.82 1012.86 1013.00 1013.25 1013.60 1014.05 1014.55 1015.09 1015.61 1016.07 1016.46 1016.74 1016.92 1017.00 1016.99 1016.93 1016.84 1016.74 1016.65 1016.59 1016.55 1016.52 1016.50 1016.47 1016.42 1016.33 1016.20 1016.05 1015.89 1015.72 1015.57 1015.46 1015.37 1015.32 1015.30
1013.18 1012.85 1012.58 1012.37 1012.21 1012.09 1012.01 1011.98 1012.01 1012.11 1012.29 1012.56 1012.91 1013.34 1013.83 1014.36 1014.88 1015.37 1015.80 1016.15 1016.41 1016.57 1016.65 1016.65 1016.61 1016.56 1016.50 1016.45 1016.42 1016.41 1016.42 1016.42 1016.40 1016.36 1016.28 1016.18 1016.05 1015.91 1015.77 1015.64 1015.54 1015.48 1015.44 1015.42
1012.62 1012.05 1011.57 1011.21 1010.95 1010.80 1010.76 1010.82 1010.98 1011.22 1011.56 1011.97 1012.45 1012.98 1013.53 1014.09 1014.63 1015.12 1015.53 1015.87 1016.12 1016.28 1016.36 1016.39 1016.37 1016.34 1016.31 1016.30 1016.29 1016.30 1016.32 1016.33 1016.33 1016.30 1016.24 1016.15 1016.04 1015.92 1015.80 1015.69 1015.60 1015.54 1015.49 1015.46
1012.01 1011.21 1010.55 1010.03 1009.68 1009.50 1009.48 1009.61 1009.88 1010.26 1010.74 1011.30 1011.90 1012.53 1013.16 1013.78 1014.34 1014.85 1015.28 1015.62 1015.87 1016.05 1016.15 1016.20 1016.21 1016.21 1016.20 1016.19 1016.20 1016.22 1016.24 1016.26 1016.26 1016.24 1016.20 1016.13 1016.04 1015.93 1015.81 1015.70 1015.60 1015.52 1015.45 1015.39
1011.41 1010.45 1009.64 1009.00 1008.57 1008.35 1008.34 1008.53 1008.88 1009.37 1009.96 1010.63 1011.34 1012.06 1012.76 1013.43 1014.04 1014.58 1015.03 1015.39 1015.67 1015.87 1016.00 1016.08 1016.11 1016.13 1016.13 1016.13 1016.14 1016.15 1016.17 1016.18 1016.19 1016.18 1016.14 1016.09 1016.01 1015.90 1015.79 1015.66 1015.53 1015.41 1015.30 1015.20
1010.87 1009.82 1008.92 1008.22 1007.74 1007.50 1007.50 1007.72 1008.12 1008.68 1009.34 1010.08 1010.86 1011.64 1012.39 1013.10 1013.74 1014.31 1014.79 1015.18 1015.49 1015.73 1015.89 1015.99 1016.04 1016.07 1016.07 1016.07 1016.07 1016.07 1016.08 1016.08 1016.09 1016.08 1016.05 1016.00 1015.93 1015.83 1015.70 1015.55 1015.39 1015.21 1015.05 1014.89
Thickness
5752 5736 5728 5737 5743 5742 5740 5736 5733 5744 5759 5752 5741 5738 5742 5746 5744 5742 5740 5738 5736 5736 5736 5735 5734 5734 5732 5729 5726 5723 5721 5718 5716 5713 5709 5706 5703 5703 5701 5700 5698 5696 5694 5691
5730 5726 5746 5754 5754 5750 5743 5734 5733 5742 5755 5748 5737 5734 5738 5740 5739 5739 5736 5733 5732 5730 5729 5728 5727 5725 5723 5721 5719 5716 5714 5711 5709 5707 5705 5702 5699 5696 5694 5691 5690 5688 5686 5684
5725 5739 5759 5754 5748 5744 5740 5734 5733 5734 5742 5742 5734 5722 5725 5732 5735 5736 5735 5733 5729 5728 5725 5723 5721 5717 5714 5713 5712 5709 5706 5704 5703 5701 5698 5695 5690 5688 5684 5682 5680 5680 5678 5675
5736 5752 5756 5749 5746 5744 5730 5747 5746 5740 5724 5711 5721 5695 5712 5720 5723 5726 5727 5726 5724 5725 5722 5718 5715 5711 5708 5706 5704 5702 5699 5697 5695 5693 5689 5686 5681 5677 5675 5673 5671 5670 5669 5667
5736 5748 5747 5742 5747 5750 5743 5752 5744 5737 5721 5708 5709 5697 5700 5713 5711 5716 5721 5723 5721 5720 5717 5713 5710 5707 5703 5701 5698 5695 5691 5688 5686 5684 5682 5678 5674 5670 5667 5665 5662 5661 5659 5657
5745 5757 5756 5754 5760 5759 5753 5741 5730 5718 5704 5688 5699 5693 5691 5703 5711 5715 5717 5719 5717 5714 5712 5708 5705 5702 5696 5693 5690 5687 5684 5680 5678 5676 5673 5670 5666 5663 5659 5656 5653 5651 5650 5648
5731 5744 5756 5761 5747 5748 5740 5711 5686 5681 5672 5678 5699 5692 5691 5711 5717 5718 5715 5714 5712 5709 5705 5701 5697 5694 5690 5686 5683 5679 5676 5672 5670 5667 5665 5662 5659 5655 5652 5649 5646 5644 5641 5639
5709 5713 5740 5750 5743 5734 5732 5712 5682 5668 5665 5673 5689 5685 5696 5714 5716 5717 5714 5712 5709 5704 5701 5696 5692 5688 5684 5680 5677 5672 5668 5665 5662 5659 5656 5653 5650 5647 5644 5641 5639 5637 5634 5632
5706 5711 5742 5751 5753 5742 5724 5711 5708 5684 5678 5668 5674 5685 5699 5709 5708 5708 5707 5705 5702 5699 5695 5690 5685 5682 5678 5674 5670 5666 5661 5657 5654 5651 5648 5644 5641 5639 5636 5634 5632 5630 5628 5626
5718 5708 5727 5742 5746 5741 5731 5719 5695 5681 5666 5658 5670 5677 5680 5694 5696 5699 5699 5697 5695 5693 5689 5684 5680 5676 5672 5668 5664 5660 5655 5650 5647 5644 5640 5637 5633 5630 5628 5626 5624 5622 5621 5619
5721 5702 5709 5720 5718 5716 5718 5712 5697 5679 5673 5660 5655 5669 5700 5698 5698 5695 5695 5695 5692 5688 5684 5679 5674 5670 5665 5660 5656 5652 5648 5644 5640 5636 5632 5629 5626 5622 5620 5618 5617 5616 5614 5613
5713 5694 5687 5703 5722 5730 5721 5711 5696 5676 5671 5668 5659 5669 5706 5703 5701 5697 5692 5690 5687 5682 5678 5673 5668 5663 5658 5653 5649 5646 5642 5638 5634 5630 5626 5622 5618 5615 5613 5612 5611 5609 5608 5606
5707 5686 5671 5680 5694 5711 5710 5712 5705 5688 5674 5665 5658 5671 5700 5699 5695 5692 5687 5684 5681 5676 5672 5667 5661 5656 5652 5648 5644 5641 5637 5633 5629 5624 5619 5615 5612 5609 5607 5605 5604 5603 5601 5599
5706 5682 5671 5666 5675 5690 5695 5703 5704 5690 5670 5668 5673 5678 5687 5688 5686 5683 5680 5678 5674 5670 5666 5661 5654 5650 5647 5643 5639 5636 5632 5628 5624 5619 5614 5610 5606 5603 5601 5599 5598 5596 5595 5593
5693 5677 5681 5685 5693 5697 5696 5699 5702 5695 5688 5677 5681 5682 5686 5686 5685 5682 5678 5673 5670 5666 5662 5657 5651 5646 5642 5638 5634 5631 5627 5623 5619 5614 5609 5605 5602 5599 5596 5594 5592 5591 5589 5588
5681 5673 5676 5678 5689 5691 5690 5697 5699 5699 5697 5688 5685 5683 5691 5688 5685 5679 5675 5671 5667 5663 5660 5656 5650 5644 5639 5635 5631 5627 5622 5618 5614 5609 5605 5601 5598 5595 5592 5589 5587 5586 5584 5583
5672 5666 5660 5659 5676 5677 5672 5691 5695 5694 5696 5691 5680 5682 5685 5680 5679 5676 5672 5669 5666 5663 5658 5653 5648 5642 5637 5633 5629 5623 5619 5615 5610 5605 5602 5598 5595 5591 5589 5587 5584 5582 5579 5578
5670 5661 5651 5651 5658 5651 5675 5700 5700 5693 5693 5694 5689 5687 5685 5681 5678 5676 5673 5668 5664 5661 5655 5650 5645 5640 5635 5631 5626 5621 5616 5611 5607 5603 5599 5596 5592 5589 5586 5583 5580 5578 5576 5573
5677 5663 5649 5642 5644 5654 5678 5692 5691 5684 5681 5688 5685 5683 5681 5678 5672 5668 5670 5669 5664 5659 5654 5648 5643 5638 5633 5628 5623 5618 5613 5608 5604 5601 5597 5594 5590 5586 5583 5580 5577 5575 5572 5571
5672 5662 5649 5643 5641 5643 5668 5691 5699 5687 5670 5685 5684 5679 5676 5671 5658 5659 5666 5666 5661 5656 5651 5646 5641 5635 5630 5625 5621 5615 5610 5606 5603 5600 5596 5593 5588 5584 5581 5578 5575 5573 5571 5568
5650 5648 5644 5641 5640 5652 5679 5692 5692 5665 5665 5681 5681 5678 5675 5669 5665 5664 5663 5661 5658 5652 5648 5644 5639 5633 5628 5624 5619 5613 5608 5605 5602 5599 5595 5591 5587 5583 5580 5577 5574 5572 5569 5567
5641 5638 5640 5639 5636 5648 5682 5683 5674 5671 5679 5681 5679 5677 5673 5668 5666 5662 5660 5657 5654 5649 5645 5641 5635 5630 5627 5623 5617 5612 5607 5605 5602 5598 5594 5590 5586 5584 5581 5577 5574 5571 5568 5566
5641 5641 5639 5642 5647 5665 5677 5678 5682 5680 5678 5677 5675 5674 5671 5665 5661 5659 5655 5652 5650 5646 5642 5638 5634 5629 5625 5621 5617 5611 5608 5605 5601 5597 5592 5589 5586 5584 5581 5577 5574 5571 5568 5565
5642 5648 5642 5643 5654 5663 5671 5676 5678 5679 5678 5678 5677 5674 5671 5664 5660 5656 5652 5648 5646 5643 5640 5637 5632 5627 5623 5620 5616 5612 5609 5605 5600 5595 5591 5588 5586 5583 5581 5578 5575 5572 5569 5566
5635 5638 5636 5639 5651 5659 5667 5671 5673 5674 5676 5676 5675 5673 5669 5664 5659 5654 5650 5647 5644 5642 5639 5635 5631 5626 5623 5620 5616 5613 5609 5605 5600 5595 5592 5589 5587 5584 5581 5579 5576 5574 5572 5569
5638 5636 5634 5639 5651 5652 5659 5668 5671 5669 5670 5671 5670 5668 5667 5665 5659 5655 5649 5646 5644 5641 5638 5634 5630 5626 5623 5620 5616 5613 5610 5606 5601 5596 5593 5590 5587 5584 5581 5579 5577 5577 5574 5572